Weather History for Defiance, OH

Change the Weather History Date:

Saturday, September 28, 2013

  Actual Average Record
Temperature  
Mean Temperature 64 °F -  
Max Temperature 82 °F 70 °F 89 °F (1973)
Min Temperature 46 °F 45 °F 29 °F (1942)
Degree Days  
Heating Degree Days 2    
Growing Degree Days 14 (Base 50)    
Moisture  
Dew Point 48 °F    
Average Humidity 76    
Maximum Humidity 100    
Minimum Humidity 29    
Precipitation  
Precipitation 0.00 in - - ()
Sea Level Pressure  
Sea Level Pressure 30.14 in    
Wind  
Wind Speed 1 mph (South)    
Max Wind Speed 10 mph    
Max Gust Speed -    
Visibility 5 miles    
Events Fog    
Averages and records for this station are not official NWS values.
T = Trace of Precipitation, MM = Missing Value Source: NWS Daily Summary

Daily Weather History Graph

Daily Weather History Graph

Search for Another Location

Airport:

Trip Planner

Search our weather history database for the weather conditions in past years. The results will help you decide how hot, cold, wet, or windy it might be!

Date:

Astronomy

Sep. 28, 2013 Rise Set
Actual Time 7:31 AM EDT 7:24 PM EDT
Civil Twilight 7:04 AM EDT 7:51 PM EDT
Nautical Twilight 6:31 AM EDT 8:23 PM EDT
Astronomical Twilight 5:59 AM EDT 8:56 PM EDT
Moon 1:14 AM EDT (9/28) 3:45 PM EDT (9/28)
Length of Visible Light 12h 47m
Length of Day
11h 52m
Last Quarter, 36% of the Moon is Illuminated
Sep 28
Last Quarter
Oct 4
New
Oct 11
First Quarter
Oct 18
Full
Oct 26
Last Quarter

Hourly Weather History & Observations

Time (EDT) Temp. Dew Point Humidity Pressure Visibility Wind Dir Wind Speed Gust Speed Precip Events Conditions
12:53 AM 53.1 °F 50.0 °F 89% 30.17 in 10.0 mi Calm Calm - N/A   Clear
1:53 AM 52.0 °F 48.9 °F 89% 30.17 in 3.0 mi Calm Calm - N/A   Clear
2:03 AM 51.8 °F 50.0 °F 94% 30.17 in 2.5 mi Calm Calm - N/A   Clear
2:17 AM 51.8 °F 50.0 °F 94% 30.17 in 3.0 mi Calm Calm - N/A   Clear
2:21 AM 51.8 °F 48.2 °F 88% 30.17 in 2.0 mi Calm Calm - N/A   Clear
2:30 AM 51.8 °F 48.2 °F 88% 30.17 in 1.5 mi Calm Calm - N/A   Clear
2:35 AM 51.8 °F 48.2 °F 88% 30.17 in 2.5 mi Calm Calm - N/A   Clear
2:44 AM 50.0 °F 48.2 °F 94% 30.18 in 5.0 mi Calm Calm - N/A   Clear
2:53 AM 50.0 °F 46.9 °F 89% 30.17 in 6.0 mi Calm Calm - N/A   Clear
3:09 AM 48.2 °F 46.4 °F 93% 30.17 in 1.8 mi Calm Calm - N/A   Clear
3:19 AM 48.2 °F 46.4 °F 93% 30.17 in 0.8 mi Calm Calm - N/A   Clear
3:24 AM 48.2 °F 46.4 °F 93% 30.17 in 1.0 mi Calm Calm - N/A   Mist
3:31 AM 50.0 °F 46.4 °F 87% 30.16 in 2.5 mi Calm Calm - N/A   Scattered Clouds
3:36 AM 50.0 °F 46.4 °F 87% 30.16 in 1.5 mi Calm Calm - N/A   Mostly Cloudy
3:44 AM 50.0 °F 46.4 °F 87% 30.16 in 0.5 mi Calm Calm - N/A Fog Fog
3:53 AM 48.9 °F 46.9 °F 93% 30.16 in 0.2 mi Calm Calm - N/A Fog Fog
4:53 AM 48.0 °F 46.0 °F 93% 30.17 in 1.5 mi Calm Calm - N/A   Overcast
4:58 AM 48.2 °F 46.4 °F 93% 30.16 in 3.0 mi Calm Calm - N/A   Overcast
5:08 AM 48.2 °F 46.4 °F 93% 30.17 in 2.0 mi Calm Calm - N/A   Overcast
5:15 AM 48.2 °F 46.4 °F 93% 30.17 in 1.5 mi Calm Calm - N/A   Overcast
5:41 AM 48.2 °F 46.4 °F 93% 30.17 in 0.2 mi Calm Calm - N/A Fog Fog
5:53 AM 48.0 °F 46.0 °F 93% 30.17 in 0.2 mi Calm Calm - N/A Fog Fog
6:32 AM 46.4 °F 44.6 °F 93% 30.17 in 2.5 mi Calm Calm - N/A   Overcast
6:39 AM 46.4 °F 44.6 °F 93% 30.17 in 4.0 mi Calm Calm - N/A   Overcast
6:41 AM 46.4 °F 44.6 °F 93% 30.17 in 1.0 mi Calm Calm - N/A   Mist
6:48 AM 46.4 °F 46.4 °F 100% 30.18 in 0.2 mi Calm Calm - N/A Fog Fog
6:53 AM 46.9 °F 45.0 °F 93% 30.18 in 0.2 mi Calm Calm - N/A Fog Fog
7:53 AM 46.0 °F 44.1 °F 93% 30.19 in 0.5 mi Calm Calm - N/A Fog Fog
8:21 AM 48.2 °F 46.4 °F 93% 30.19 in 2.0 mi Calm Calm - N/A   Mostly Cloudy
8:25 AM 48.2 °F 46.4 °F 93% 30.19 in 3.0 mi Calm Calm - N/A   Scattered Clouds
8:53 AM 52.0 °F 50.0 °F 93% 30.19 in 4.0 mi Calm Calm - N/A   Clear
9:53 AM 60.1 °F 53.1 °F 78% 30.19 in 10.0 mi Calm Calm - N/A   Clear
10:53 AM 66.9 °F 53.1 °F 61% 30.19 in 10.0 mi SW 3.5 mph - N/A   Clear
11:53 AM 73.0 °F 52.0 °F 48% 30.17 in 10.0 mi SSW 3.5 mph - N/A   Clear
12:53 PM 78.1 °F 51.1 °F 39% 30.15 in 10.0 mi Variable 4.6 mph - N/A   Clear
1:53 PM 79.0 °F 48.9 °F 35% 30.12 in 10.0 mi South 10.4 mph - N/A   Clear
2:53 PM 81.0 °F 48.9 °F 33% 30.09 in 7.0 mi Variable 4.6 mph - N/A   Clear
3:53 PM 81.0 °F 48.0 °F 31% 30.06 in 10.0 mi South 8.1 mph - N/A   Clear
4:53 PM 81.0 °F 46.9 °F 30% 30.05 in 10.0 mi SSE 10.4 mph - N/A   Clear
5:53 PM 81.0 °F 46.0 °F 29% 30.04 in 10.0 mi South 9.2 mph - N/A   Clear
6:53 PM 79.0 °F 48.0 °F 34% 30.05 in 10.0 mi South 9.2 mph - N/A   Clear
7:53 PM 73.9 °F 48.0 °F 40% 30.04 in 10.0 mi Calm Calm - N/A   Clear
8:53 PM 70.0 °F 48.9 °F 47% 30.05 in 10.0 mi South 5.8 mph - N/A   Clear
9:53 PM 69.1 °F 48.9 °F 49% 30.04 in 10.0 mi South 4.6 mph - N/A   Clear
10:53 PM 68.0 °F 48.9 °F 50% 30.02 in 10.0 mi South 6.9 mph - N/A   Clear
11:53 PM 64.0 °F 48.9 °F 58% 30.03 in 10.0 mi South 3.5 mph - N/A   Clear